• Join FlightAware (Why Join?)
  • Login
  • US Flag 
05:17PM EST


 

Airport Tracker/Info


-or-


 

Live Flight TrackerFlight Track Log ✈ UAL4380 ✈ 09-Apr-2013 ✈ KIAH - KDAL

Flight Track Log - Related Links

Times and Time Zones

All times are in EDT time to prevent confusion due to time zone crossing. See the UAL4380 flight status page for this flight to view local times or setup timezone preferences in your user account.

Time Position Orientation Groundspeed Altitude Reporting Facility
EDT Latitude Longitude Course Direction KTS MPH feet Rate Location/Type
09:11AM 29.9769 -95.3031 334° Northwest 155 178 700  Level Houston Center
09:12AM 30.0114 -95.2894 19° North 253 291 1,800 1,520 Climbing Houston Center
09:13AM 30.0483 -95.3008 345° North 279 321 2,600 2,129 Climbing Houston Center
09:13AM 30.0919 -95.3206 339° North 319 367 4,000 2,459 Climbing Houston Center
09:14AM 30.1214 -95.3400 330° Northwest 288 331 5,100 2,557 Climbing Houston Center
09:14AM 30.1617 -95.3725 325° Northwest 301 346 6,600 2,323 Climbing Houston Center
09:15AM 30.3213 -95.5320 332° Northwest  Level FlightAware Approximate
09:15AM 30.1900 -95.3922 329° Northwest 295 339 7,500  Level Houston Center
09:16AM 30.4061 -95.5811 334° Northwest  Level FlightAware Approximate
09:16AM 30.2597 -95.4450 327° Northwest 297 342 9,600  Level Houston Center
09:17AM 30.3306 -95.4972 328° Northwest 300 345 11,100 1,122 Climbing Houston Center
09:18AM 30.4119 -95.5589 327° Northwest 347 399 11,900 1,113 Climbing Houston Center
09:19AM 30.4967 -95.6231 327° Northwest 362 417 13,400 1,024 Climbing Houston Center
09:20AM 30.6075 -95.6894 333° Northwest 380 437 14,000 293 Climbing Houston Center
09:21AM 30.7128 -95.7464 335° Northwest 400 460 14,000  Level Houston Center
09:22AM 30.8114 -95.7992 335° Northwest 391 450 14,000  Level Houston Center
09:23AM 30.9081 -95.8514 335° Northwest 383 441 14,000 49 Level Houston Center
09:24AM 31.0058 -95.9025 336° Northwest 384 442 14,100 48 Climbing Houston Center
09:25AM 31.1022 -95.9547 335° Northwest 380 437 14,100  Level Houston Center
09:26AM 31.2083 -95.9875 345° North 400 460 14,100  Level Houston Center
09:27AM 31.3183 -96.0114 349° North 400 460 14,100 -47 Level Houston Center
09:28AM 31.4397 -96.0400 349° North 399 459 14,000 -48 Descending Fort Worth Center
09:29AM 31.5464 -96.0678 347° North 393 452 14,000  Level Fort Worth Center
09:30AM 31.6553 -96.0978 347° North 388 447 14,000  Level Fort Worth Center
09:31AM 31.7600 -96.1356 343° North 400 460 14,000  Level Fort Worth Center
09:32AM 31.8711 -96.1731 344° North 401 461 14,000  Level Fort Worth Center
09:33AM 31.9883 -96.2131 344° North 401 461 14,000  Level Fort Worth Center
09:34AM 32.0953 -96.2511 343° North 401 461 14,000 -650 Level Fort Worth Center
09:35AM 32.1978 -96.2864 344° North 401 461 12,700 -1,450 Descending Fort Worth Center
09:36AM 32.2983 -96.3222 343° North 379 436 11,100 -1,600 Descending Fort Worth Center
09:37AM 32.3781 -96.3508 343° North 345 397 9,500 -1,050 Descending Fort Worth Center
09:38AM 32.4639 -96.3867 341° North 306 352 9,000 -250 Descending Fort Worth Center
09:39AM 32.5331 -96.4303 332° Northwest 300 345 9,000 -550 Level Fort Worth Center
09:40AM 32.6169 -96.4786 334° Northwest 305 351 7,900 -1,000 Descending Fort Worth Center
09:41AM 32.6883 -96.5272 330° Northwest 305 351 7,000 -1,000 Descending Fort Worth Center
09:42AM 32.7556 -96.5808 326° Northwest 292 336 5,900 -1,000 Descending Fort Worth Center
09:43AM 32.8225 -96.6247 331° Northwest 280 322 5,000 -450 Descending Fort Worth Center
09:44AM 32.8875 -96.6689 330° Northwest 270 311 5,000  Level Fort Worth Center
09:45AM 32.9333 -96.7000 330° Northwest 256 295 5,000  Level Dallas / Fort Worth TRACON
09:46AM 32.9667 -96.7500 308° West 206 237 5,000 -470 Level Dallas / Fort Worth TRACON
09:47AM 33.0000 -96.8000 308° West 196 226 4,100 -843 Descending Dallas / Fort Worth TRACON
09:48AM 33.0000 -96.8500 270° West 168 193 3,300 -550 Descending Dallas / Fort Worth TRACON
09:49AM 32.9833 -96.9000 248° West 153 176 3,000 -600 Descending Dallas / Fort Worth TRACON
09:50AM 32.9500 -96.9333 220° Southwest 148 170 2,100 -900 Descending Dallas / Fort Worth TRACON